Weather History for Henderson, KY

Change the Weather History Date:

Sunday, August 25, 2013

  Actual Average Record
Temperature  
Mean Temperature 72 °F -  
Max Temperature 87 °F 87 °F 105 °F (1943)
Min Temperature 57 °F 64 °F 47 °F (1942)
Cooling Degree Days 7    
Growing Degree Days 22 (Base 50)    
Moisture  
Dew Point 66 °F    
Average Humidity 79    
Maximum Humidity 94    
Minimum Humidity 55    
Precipitation  
Precipitation 0.00 in - - ()
Sea Level Pressure  
Sea Level Pressure 30.24 in    
Wind  
Wind Speed 2 mph (SSE)    
Max Wind Speed 7 mph    
Max Gust Speed -    
Visibility 9 miles    
Events      
Averages and records for this station are not official NWS values.
T = Trace of Precipitation, MM = Missing Value Source: NWS Daily Summary

Daily Weather History Graph

Daily Weather History Graph

Search for Another Location

Airport:

Trip Planner

Search our weather history database for the weather conditions in past years. The results will help you decide how hot, cold, wet, or windy it might be!

Date:

Astronomy

Aug. 25, 2013 Rise Set
Actual Time 6:15 AM CDT 7:29 PM CDT
Civil Twilight 5:47 AM CDT 7:56 PM CDT
Nautical Twilight 5:15 AM CDT 8:29 PM CDT
Astronomical Twilight 4:41 AM CDT 9:03 PM CDT
Moon 10:07 PM CDT (8/25) 11:10 AM CDT (8/25)
Length of Visible Light 14h 09m
Length of Day
13h 14m
Waning Gibbous, 75% of the Moon is Illuminated
Aug 25
Waning Gibbous
Aug 28
Last Quarter
Sep 5
New
Sep 12
First Quarter
Sep 19
Full

Hourly Weather History & Observations

Time (CDT) Temp. Heat Index Dew Point Humidity Pressure Visibility Wind Dir Wind Speed Gust Speed Precip Events Conditions
12:15 AM 62.6 °F - 59.0 °F 88% 30.21 in 10.0 mi Calm Calm - N/A   Clear
12:35 AM 62.6 °F - 57.2 °F 82% 30.21 in 10.0 mi Calm Calm - N/A   Clear
12:55 AM 62.6 °F - 59.0 °F 88% 30.22 in 10.0 mi Calm Calm - N/A   Clear
1:15 AM 60.8 °F - 57.2 °F 88% 30.22 in 10.0 mi Calm Calm - N/A   Clear
1:35 AM 60.8 °F - 57.2 °F 88% 30.22 in 10.0 mi Calm Calm - N/A   Clear
1:55 AM 59.0 °F - 57.2 °F 94% 30.22 in 7.0 mi Calm Calm - N/A   Clear
2:15 AM 59.0 °F - 55.4 °F 88% 30.22 in 6.0 mi Calm Calm - N/A   Clear
2:35 AM 59.0 °F - 55.4 °F 88% 30.22 in 9.0 mi Calm Calm - N/A   Clear
2:55 AM 59.0 °F - 55.4 °F 88% 30.22 in 7.0 mi Calm Calm - N/A   Clear
3:15 AM 59.0 °F - 57.2 °F 94% 30.22 in 9.0 mi Calm Calm - N/A   Clear
3:35 AM 59.0 °F - 55.4 °F 88% 30.23 in 7.0 mi Calm Calm - N/A   Clear
3:55 AM 59.0 °F - 55.4 °F 88% 30.24 in 7.0 mi Calm Calm - N/A   Clear
4:15 AM 59.0 °F - 57.2 °F 94% 30.24 in 8.0 mi East 3.5 mph - N/A   Clear
4:35 AM 60.8 °F - 55.4 °F 82% 30.24 in 10.0 mi Calm Calm - N/A   Clear
4:55 AM 59.0 °F - 55.4 °F 88% 30.25 in 8.0 mi Calm Calm - N/A   Clear
5:15 AM 59.0 °F - 55.4 °F 88% 30.26 in 7.0 mi Calm Calm - N/A   Clear
5:35 AM 57.2 °F - 55.4 °F 94% 30.26 in 9.0 mi Calm Calm - N/A   Clear
5:55 AM 57.2 °F - 55.4 °F 94% 30.26 in 7.0 mi Calm Calm - N/A   Partly Cloudy
6:15 AM 59.0 °F - 55.4 °F 88% 30.27 in 6.0 mi Calm Calm - N/A   Clear
6:35 AM 57.2 °F - 55.4 °F 94% 30.27 in 10.0 mi East 3.5 mph - N/A   Clear
6:55 AM 60.8 °F - 57.2 °F 88% 30.28 in 10.0 mi Calm Calm - N/A   Clear
7:15 AM 64.4 °F - 60.8 °F 88% 30.28 in 10.0 mi Calm Calm - N/A   Clear
7:35 AM 66.2 °F - 60.8 °F 83% 30.28 in 10.0 mi Calm Calm - N/A   Partly Cloudy
7:55 AM 68.0 °F - 60.8 °F 78% 30.28 in 10.0 mi Calm Calm - N/A   Partly Cloudy
8:15 AM 69.8 °F - 62.6 °F 78% 30.29 in 10.0 mi Calm Calm - N/A   Clear
8:35 AM 69.8 °F - 62.6 °F 78% 30.29 in 10.0 mi Calm Calm - N/A   Scattered Clouds
8:55 AM 71.6 °F - 64.4 °F 78% 30.29 in 10.0 mi Calm Calm - N/A   Mostly Cloudy
9:15 AM 73.4 °F - 66.2 °F 78% 30.29 in 10.0 mi SSE 4.6 mph - N/A   Partly Cloudy
9:35 AM 75.2 °F - 68.0 °F 78% 30.29 in 10.0 mi South 4.6 mph - N/A   Clear
9:55 AM 78.8 °F - 69.8 °F 74% 30.29 in 10.0 mi South 5.8 mph - N/A   Clear
10:15 AM 80.6 °F 83.9 °F 69.8 °F 70% 30.28 in 10.0 mi South 4.6 mph - N/A   Clear
10:35 AM 80.6 °F 84.6 °F 71.6 °F 74% 30.28 in 10.0 mi SW 6.9 mph - N/A   Clear
10:55 AM 82.4 °F 87.2 °F 71.6 °F 70% 30.28 in 10.0 mi SW 6.9 mph - N/A   Scattered Clouds
11:15 AM 84.2 °F 89.6 °F 71.6 °F 66% 30.27 in 10.0 mi SSW 5.8 mph - N/A   Partly Cloudy
11:35 AM 84.2 °F 89.6 °F 71.6 °F 66% 30.27 in 10.0 mi West 5.8 mph - N/A   Clear
11:55 AM 84.2 °F 89.6 °F 71.6 °F 66% 30.26 in 10.0 mi Calm Calm - N/A   Clear
12:15 PM 84.2 °F 89.6 °F 71.6 °F 66% 30.25 in 10.0 mi Calm Calm - N/A   Mostly Cloudy
12:35 PM 84.2 °F 89.6 °F 71.6 °F 66% 30.25 in 10.0 mi SSE 4.6 mph - N/A   Mostly Cloudy
12:55 PM 87.8 °F 93.8 °F 71.6 °F 58% 30.24 in 10.0 mi South 4.6 mph - N/A   Scattered Clouds
1:15 PM 86.0 °F 91.8 °F 71.6 °F 62% 30.24 in 10.0 mi SSE 3.5 mph - N/A   Scattered Clouds
1:35 PM 86.0 °F 91.8 °F 71.6 °F 62% 30.24 in 10.0 mi SE 4.6 mph - N/A   Scattered Clouds
1:55 PM 84.2 °F 89.6 °F 71.6 °F 66% 30.23 in 10.0 mi SSE 5.8 mph - N/A   Partly Cloudy
2:15 PM 84.2 °F 89.6 °F 71.6 °F 66% 30.22 in 10.0 mi SE 5.8 mph - N/A   Scattered Clouds
2:35 PM 84.2 °F 89.6 °F 71.6 °F 66% 30.22 in 10.0 mi SSE 3.5 mph - N/A   Scattered Clouds
2:55 PM 87.8 °F 92.6 °F 69.8 °F 55% 30.21 in 10.0 mi South 4.6 mph - N/A   Mostly Cloudy
3:15 PM 82.4 °F 87.2 °F 71.6 °F 70% 30.21 in 10.0 mi East 5.8 mph - N/A   Mostly Cloudy
3:35 PM 82.4 °F 87.2 °F 71.6 °F 70% 30.20 in 10.0 mi East 5.8 mph - N/A   Overcast
3:55 PM 84.2 °F 89.6 °F 71.6 °F 66% 30.20 in 10.0 mi East 3.5 mph - N/A   Overcast
4:15 PM 84.2 °F 89.6 °F 71.6 °F 66% 30.21 in 10.0 mi SE 5.8 mph - N/A   Overcast
4:35 PM 84.2 °F 89.6 °F 71.6 °F 66% 30.20 in 10.0 mi ESE 3.5 mph - N/A   Overcast
4:55 PM 82.4 °F 87.2 °F 71.6 °F 70% 30.20 in 10.0 mi SE 5.8 mph - N/A   Overcast
5:15 PM 84.2 °F 89.6 °F 71.6 °F 66% 30.20 in 10.0 mi ESE 3.5 mph - N/A   Mostly Cloudy
5:35 PM 84.2 °F 90.9 °F 73.4 °F 70% 30.20 in 10.0 mi SE 5.8 mph - N/A   Scattered Clouds
5:55 PM 82.4 °F 87.2 °F 71.6 °F 70% 30.20 in 10.0 mi ESE 3.5 mph - N/A   Clear
6:15 PM 82.4 °F 87.2 °F 71.6 °F 70% 30.20 in 10.0 mi SE 5.8 mph - N/A   Partly Cloudy
6:35 PM 82.4 °F 87.2 °F 71.6 °F 70% 30.20 in 10.0 mi SE 4.6 mph - N/A   Clear
6:55 PM 80.6 °F 84.6 °F 71.6 °F 74% 30.20 in 10.0 mi SSE 5.8 mph - N/A   Clear
7:15 PM 80.6 °F 83.9 °F 69.8 °F 70% 30.20 in 10.0 mi SSE 5.8 mph - N/A   Clear
7:35 PM 78.8 °F - 69.8 °F 74% 30.20 in 10.0 mi SSE 5.8 mph - N/A   Clear
7:55 PM 77.0 °F - 69.8 °F 78% 30.20 in 10.0 mi SSE 4.6 mph - N/A   Clear
8:15 PM 75.2 °F - 69.8 °F 83% 30.21 in 10.0 mi South 4.6 mph - N/A   Clear
8:35 PM 73.4 °F - 69.8 °F 88% 30.21 in 7.0 mi South 3.5 mph - N/A   Clear
8:55 PM 73.4 °F - 69.8 °F 88% 30.22 in 8.0 mi South 3.5 mph - N/A   Clear
9:15 PM 73.4 °F - 69.8 °F 88% 30.23 in 10.0 mi South 3.5 mph - N/A   Clear
9:35 PM 73.4 °F - 69.8 °F 88% 30.23 in 10.0 mi South 3.5 mph - N/A   Clear
9:55 PM 73.4 °F - 69.8 °F 88% 30.24 in 10.0 mi South 4.6 mph - N/A   Clear
10:15 PM 73.4 °F - 69.8 °F 88% 30.24 in 10.0 mi South 5.8 mph - N/A   Clear
10:35 PM 73.4 °F - 69.8 °F 88% 30.24 in 9.0 mi South 5.8 mph - N/A   Clear
10:55 PM 73.4 °F - 69.8 °F 88% 30.24 in 7.0 mi South 4.6 mph - N/A   Clear
11:15 PM 71.6 °F - 68.0 °F 88% 30.24 in 10.0 mi South 3.5 mph - N/A   Clear
11:35 PM 71.6 °F - 66.2 °F 83% 30.24 in 9.0 mi South 4.6 mph - N/A   Clear
11:55 PM 73.4 °F - 68.0 °F 83% 30.24 in 10.0 mi South 5.8 mph - N/A   Clear